Orbital Elements at Epoch 2459200.5 (2020-Dec-17.0) TDB
Reference: JPL 30 (heliocentric ecliptic J2000)
Element | Value | Uncertainty (1-sigma) | Units |
e | .2129145530877339 | 3.6445e-08 | |
a | 2.398759926419827 | 6.4739e-09 | au |
q | 1.888029028721384 | 8.7053e-08 | au |
i | 1.167596485747638 | 2.8755e-06 | deg |
node | 282.4133598539095 | 0.00020458 | deg |
peri | 119.0494081123346 | 0.00020471 | deg |
M | 219.3560768072261 | 7.7386e-06 | deg |
tp | 2459730.647937080538 (2022-May-31.14793708) | 3.0133e-05 | TDB |
period | 1356.99611484387 3.72 | 5.4935e-06 1.504e-08 | d yr |
n | .2652918428152022 | 1.074e-09 | deg/d |
Q | 2.90949082411827 | 7.8523e-09 | au |
|
| | Orbit Determination Parameters
Additional Information
|